Regional Weather Roundup
Issued by NWS

Home | Current Version | Previous Version | Graphics & Text | Print | Product List | Glossary On
Versions: 1 2 3 4 5 6 7 8 9 10 11 12 13 14 15 16 17 18 19 20 21 22 23 24 25 26 27 28 29 30 31 32 33 34 35 36 37 38 39 40 41 42 43 44 45 46 47 48 49 50
812
ASUS43 KIND 120409
RWRIN

WEATHER ROUNDUP FOR INDIANA
NATIONAL WEATHER SERVICE INDIANAPOLIS IN
1100 PM EST MON DEC 11 2017

NOTE: "FAIR" INDICATES FEW OR NO CLOUDS BELOW 12,000 FEET WITH NO
SIGNIFICANT WEATHER AND/OR OBSTRUCTIONS TO VISIBILITY.

* - STATION DOES NOT REPORT WEATHER SUCH AS PRECIPITATION OR FOG.

+ - STATION NOT QUALITY CONTROLLED BY THE NATIONAL WEATHER SERVICE.
    USE DATA WITH CAUTION...ESPECIALLY DEWPOINT AND RELATIVE
    HUMIDITY OBSERVATIONS.

INZ001>003-010>013-019-020-120500-
NORTHWEST INDIANA

CITY           SKY/WX    TMP DP  RH WIND       PRES   REMARKS
GARY /AIRPORT/ CLOUDY    34  28  80 NW14G32   29.85R WCI  24
KNOX *+        CLOUDY    32  32 100 NW10      29.76R WCI  24
LA PORTE +     CLEAR     34  31  88 NW16G23   29.77R WCI  24
MICHIGAN CITY+ CLOUDY    34  30  86 N15G29    29.79R WCI  24
MONTICELLO +   CLOUDY    33  28  83 NW12      29.77R WCI  24
RENSSELAER +   CLOUDY    34  30  86 NW14      29.81R WCI  24
VALPARAISO     CLOUDY    36  31  82 NW16G23   29.80R WCI  26

$$

LMZ046-743>745-120500-
SOUTHERN LAKE MICHIGAN

STATION/POSITION TIME  TEMP    WIND        PRES    WAVE
                       AIR SEA DIR/SP/G            HT
                 (UTC) (F)     (DEG/KT/KT) (MB)    (FT)
BURNS HARBOR     0340   36     340/ 25/ 30 1009.1R
MICHIGAN CITY    0340   36     320/ 31/ 34   N/A

$$

INZ004-005-014>016-021>024-120500-
NORTH CENTRAL INDIANA

CITY           SKY/WX    TMP DP  RH WIND       PRES   REMARKS
GOSHEN         CLOUDY    31  29  92 NW10      29.72R FOG     WCI  22
LOGANSPORT +   CLOUDY    32  28  86 NW8       29.76R WCI  25
PERU/GRISSOM   CLOUDY    32  28  88 NW12      29.72R WCI  23
ROCHESTER +    MIX PCPN  34  32  93 NW8       29.73R WCI  27
SOUTH BEND     CLOUDY    31  31 100 NW14      29.75R FOG     WCI  21
WARSAW +       LGT SNOW  30  30 100 NW6       29.71R WCI  24

$$

INZ006>009-017-018-025>027-120500-
NORTHEAST INDIANA

CITY           SKY/WX    TMP DP  RH WIND       PRES   REMARKS
AUBURN +       MIX PCPN  32  28  86 NW6       29.68S WCI  26
FORT WAYNE     CLOUDY    32  28  85 N8        29.68R WCI  25
HUNTINGTON +   CLOUDY    31  28  88 N8        29.69R WCI  24
KENDALLVILLE + LGT SNOW  30  29  96 NW5       29.69R WCI  25

$$

INZ028-029-035-036-043>045-051>053-120500-
WEST CENTRAL INDIANA

CITY           SKY/WX    TMP DP  RH WIND       PRES   REMARKS
CRAWFORDSVL +  CLOUDY    33  27  77 NW16G23   29.79R WCI  23
GREENCASTLE +  PTCLDY    36  28  75 NW9       29.80R WCI  29
LAFAYETTE      CLOUDY    34  29  82 NW12G21   29.80R WCI  25
TERRE HAUTE    CLOUDY    38  29  70 NW17G26   29.84R WCI  28

$$

INZ030>032-037>040-046>048-054>057-064-065-120500-
CENTRAL INDIANA

CITY           SKY/WX    TMP DP  RH WIND       PRES   REMARKS
FRANKFORT +    CLOUDY    36  29  78 NW13      29.79R WCI  27
GREENWOOD *+   CLOUDY    43  30  59 W18G31    29.74R
INDIANAPOLIS   MOCLDY    38  27  64 W24G32    29.76R WCI  27
-EAGLE CREEK   PTCLDY    38  27  64 NW24G32   29.75R WCI  27
KOKOMO +       MOCLDY    32  28  85 NW13      29.73R WCI  22
MARION +       CLOUDY    34  28  80 N12G18    29.70R WCI  25
MT COMFORT *+  MOCLDY    37  30  75 W20       29.72R WCI  27
SHELBYVILLE    MOCLDY    40  26  57 W17G24    29.72R WCI  31
ZIONSVILLE +   PTCLDY    33  27  78 NW15G23   29.75R WCI  22

$$

INZ033-034-041-042-049-050-058-059-120500-
EAST CENTRAL INDIANA

CITY           SKY/WX    TMP DP  RH WIND       PRES   REMARKS
MUNCIE         CLOUDY    40  27  59 W17G25    29.67R WCI  31
RICHMOND +     MOCLDY    36  28  75 W17G25    29.67S WCI  25

$$

INZ060-061-067>069-081>083-085>088-120500-
SOUTHWEST INDIANA

CITY           SKY/WX    TMP DP  RH WIND       PRES   REMARKS
EVANSVILLE     CLOUDY    47  32  56 NW8G17    29.88R
HUNTINGBURG +  CLOUDY    45  32  60 NW13      29.85R
WASHINGTON +   CLOUDY    42  29  61 NW14      29.85R

$$

INZ062-063-066-070>080-084-089>092-120500-
SOUTH CENTRAL AND SOUTHEAST INDIANA

CITY           SKY/WX    TMP DP  RH WIND       PRES   REMARKS
BEDFORD +      MOCLDY    43  27  52 W12G24    29.80R
BLOOMINGTON    CLOUDY    40  26  57 NW12G28   29.79R WCI  33
MADISON *+     CLOUDY    45  28  53 W12G21    29.77R
NORTH VERNON + MOCLDY    41  27  56 W18G28    29.75R
SEYMOUR +      PTCLDY    43  27  52 W24       29.77R

$$





USA.gov is the U.S. government's official web portal to all federal, state and local government web resources and services.